Lexington Weather

Lexington, Massachusetts, USA

46°F
10/26/2020 5:32am 
  • Lexington Conditions: Overcast
  • Temperature: 45.7°F / 7.6°CWarmer 0.6°F than last hour.
  • Dew Point: 40.5°FIncreased 0.8°Fsince last hour.
  • Relative Humidity: 82%Increased 1.0% since last hour.
  • Wind: Wind from S S Calm, 10-min avg: 1 mph, gust: 3 mph
  • Barometer: 30.27 in Steady
  • Visibility: 10 miles
  • Rain Today: 0.00 in
  •   

Regional Weather Roundup
for Boston / Norton, MA

        
000
ASUS41 KBOX 232004
RWRBOX

REGIONAL WEATHER ROUNDUP
NATIONAL WEATHER SERVICE BOSTON/NORTON MA
400 PM EDT FRI OCT 23 2020

NOTE:  "FAIR" INDICATES FEW OR NO CLOUDS BELOW 12,000 FEET WITH NO 
SIGNIFICANT WEATHER AND/OR OBSTRUCTIONS TO VISIBILITY.

MAZALL-232100-
EASTERN MASSACHUSETTS
  
CITY           SKY/WX    TMP DP  RH WIND       PRES   REMARKS
BOSTON         MOSUNNY   59  53  80 E13       30.17F                  
BEVERLY        MOSUNNY   62  50  64 SE8       30.16F                  
LAWRENCE       CLOUDY    64  53  67 E9        30.17F                  
BEDFORD        CLOUDY    67  57  70 SE7       30.14F                  
BLUE HILL        N/A     63  54  72 NE8       30.14F                  
NORWOOD        SUNNY     69  55  60 N7        30.14F                  
MARSHFIELD     SUNNY     63  55  77 E8        30.16F                  
PLYMOUTH       SUNNY     64  54  69 NE6       30.16F                  
TAUNTON        SUNNY     72  58  61 SW3       30.14F                  
NEW BEDFORD    SUNNY     71  51  49 SE6       30.14F                  
$$

MAZALL-232100-
CAPE COD AND THE ISLANDS
  
CITY           SKY/WX    TMP DP  RH WIND       PRES   REMARKS
FALMOUTH       SUNNY     68  55  64 E8        30.16                   
HYANNIS        SUNNY     66  56  70 N7        30.15F                  
CHATHAM        MOSUNNY   62  55  77 E7        30.18F                  
PROVINCETOWN   SUNNY     62  55  77 E9        30.18F                  
NANTUCKET      MOSUNNY   63  54  72 E10G17    30.17S                  
MARTHAS VNYRD  SUNNY     68  48  48 E8        30.16F                  
$$
 
MAZALL-232100-
CENTRAL AND WESTERN MASSACHUSETTS
  
CITY           SKY/WX    TMP DP  RH WIND       PRES   REMARKS
WORCESTER      MOSUNNY   65  57  75 S8        30.15F                  
FITCHBURG      CLOUDY    67  57  70 SE6       30.15F                  
ORANGE         CLOUDY    67  60  78 S6        30.13F                  
SPRINGFIELD    PTSUNNY   70  60  69 S7        30.11F                  
WESTFIELD      CLOUDY    68  61  78 S10       30.12F                  
NORTH ADAMS    SUNNY     74  57  55 VRB7      30.07F                  
PITTSFIELD     MOSUNNY   70  57  63 S13G20    30.09F                  
$$
 
RIZALL-232100-
RHODE ISLAND
  
CITY           SKY/WX    TMP DP  RH WIND       PRES   REMARKS
PROVIDENCE     SUNNY     67  58  72 VRB5      30.16F                  
NEWPORT        SUNNY     65  57  75 CALM      30.16F                  
BLOCK ISLAND   CLOUDY    60  56  86 VRB3      30.17F                  
SMITHFIELD     SUNNY     67  59  75 VRB5        N/A                   
WESTERLY       SUNNY     65  56  72 CALM      30.16F                  
$$
 
CTZALL-232100-
CONNECTICUT
  
CITY           SKY/WX    TMP DP  RH WIND       PRES   REMARKS
BRADLEY INTL   PTSUNNY   68  59  73 S9        30.12F                  
HARTFORD       PTSUNNY   67  59  75 S8        30.13F                  
BRIDGEPORT     CLOUDY    64  61  90 E9        30.14F                  
DANBURY        CLOUDY    64  61  90 SE8       30.15F                  
GROTON         PTSUNNY   62  57  83 S5        30.16F                  
NEW HAVEN      CLOUDY    64  61  90 SE7       30.14F FOG              
CHESTER        CLOUDY    64  59  82 CALM      30.16F                  
MERIDEN        CLOUDY    64  58  80 S6        30.14F                  
WILLIMANTIC    CLOUDY    64  58  80 S6        30.15F                  
OXFORD         CLOUDY    61  60  97 S6        30.16F                  
$$

MEZ002-015-021-024-NHZ003-005-008-011-012-014-VTZ005-008-232100-
NORTHERN NEW ENGLAND
  
CITY           SKY/WX    TMP DP  RH WIND       PRES   REMARKS
PORTLAND ME    CLOUDY    55  50  83 SE7       30.20F                  
BANGOR ME      CLOUDY    58  47  66 S12       30.19F                  
CONCORD NH     CLOUDY    63  53  70 CALM      30.15F                  
MANCHESTER NH  CLOUDY    67  54  63 SE8       30.13F                  
NASHUA NH      CLOUDY    67  58  72 SE5       30.15F                  
PORTSMOUTH NH  CLOUDY    58  50  74 E8        30.16                   
JAFFREY NH     CLOUDY    63  57  81 S6        30.15F                  
KEENE NH       CLOUDY    66  60  81 S7        30.12F                  
BURLINGTON VT  MOSUNNY   76  57  51 S14       29.97F                  
MT. WASHINGTON FOG       46  45  93 SW43G58     N/A  VSB 1/8          
$$

NYZ052-076-232100-
EASTERN NEW YORK
  
CITY           SKY/WX    TMP DP  RH WIND       PRES   REMARKS
ALBANY         MOSUNNY   72  58  61 S16G26    30.03F                  
NEW YORK CITY  MOSUNNY   69  60  73 S10       30.12F                  
$$
 
ANZALL-232100-
MARINE OBSERVATIONS
  
STATION/POSITION TIME  TEMP    WIND        PRES    VSBY  WAVE
                       AIR SEA DIR/SP/G                  HT/PER
                 (UTC) (F)     (DEG/KT/KT) (MB)    (MI)  (FT/S)
BOSTON BUOY      1950   59 60   80/ 10/ 12 1020.4F         4/12
BUZZARDS BAY     1900          260/  4/  4 1022.8F
NANTUCKET SOUND  1950      62   90/ 10/ 14   N/A           1/ 3
MASS BAY-STELLWA 1904   59 58   90/  8/ 10 1021.5F  1 7/8  4/11
ISLE OF SHOALS   1900   56      90/ 10/ 11 1021.8F
S OF BLOCK IS    1926      64                N/A           5/13
$$

......................KEY.........................
  SKY/WX - SKY CONDITION/PRESENT WEATHER
  TMP    - TEMPERATURE IN FAHRENHEIT
  DWPT   - DEWPOINT IN FAHRENHEIT
  RH     - RELATIVE HUMIDITY IN PERCENT
  WIND   - DIRECTION AND SPEED IN MPH
  PRES   - MEAN SEA LEVEL PRESSURE IN INCHES OF HG
  WCI    - WIND CHILL INDEX
  VSB    - VISIBILITY IN MILES
  HX     - HEAT INDEX
  TC     - TEMPERATURE IN CELSIUS
  VRB    - VARIABLE WIND DIRECTION
  N/A    - NOT AVAILABLE
  
      

Other recent Regional Weather Roundups

Mon Oct 26, 5:04am

Mon Oct 26, 4:04am

Mon Oct 26, 3:04am

Mon Oct 26, 2:04am

Mon Oct 26, 1:04am

Mon Oct 26, 12:04am

Sun Oct 25, 11:05pm

Sun Oct 25, 10:04pm

Sun Oct 25, 9:04pm

Sun Oct 25, 8:04pm

Sun Oct 25, 7:04pm

Sun Oct 25, 6:04pm

Sun Oct 25, 5:04pm

Sun Oct 25, 4:05pm

Sun Oct 25, 3:04pm

Sun Oct 25, 2:04pm

Sun Oct 25, 1:04pm

Sun Oct 25, 12:04pm

Sun Oct 25, 11:04am

Sun Oct 25, 10:04am

Sun Oct 25, 9:04am

Sun Oct 25, 8:04am

Sun Oct 25, 7:04am

Sun Oct 25, 6:04am

Sun Oct 25, 5:04am

Sun Oct 25, 4:04am

Sun Oct 25, 3:04am

Sun Oct 25, 2:04am

Sun Oct 25, 1:05am

Sun Oct 25, 12:04am

Sat Oct 24, 11:04pm

Sat Oct 24, 10:04pm

Sat Oct 24, 9:04pm

Sat Oct 24, 8:04pm

Sat Oct 24, 7:04pm

Sat Oct 24, 6:04pm

Sat Oct 24, 5:05pm

Sat Oct 24, 4:04pm

Sat Oct 24, 3:04pm

Sat Oct 24, 2:04pm

Sat Oct 24, 1:05pm

Sat Oct 24, 12:04pm

Sat Oct 24, 11:05am

Sat Oct 24, 10:05am

Sat Oct 24, 9:04am

Sat Oct 24, 8:04am

Sat Oct 24, 7:04am

Sat Oct 24, 6:04am

Sat Oct 24, 5:04am

Sat Oct 24, 4:04am

Sat Oct 24, 3:04am

Sat Oct 24, 2:04am

Sat Oct 24, 1:05am

Sat Oct 24, 12:04am

Fri Oct 23, 11:04pm

Fri Oct 23, 10:04pm

Fri Oct 23, 9:04pm

Fri Oct 23, 8:05pm

Fri Oct 23, 7:04pm

Fri Oct 23, 6:04pm

Fri Oct 23, 5:05pm

Fri Oct 23, 3:04pm

Fri Oct 23, 2:05pm

Fri Oct 23, 1:04pm

Fri Oct 23, 12:04pm

Fri Oct 23, 11:04am

Fri Oct 23, 10:04am

Fri Oct 23, 9:04am

Fri Oct 23, 8:04am

Fri Oct 23, 7:04am

Fri Oct 23, 6:04am

Fri Oct 23, 5:04am

Fri Oct 23, 4:04am

Fri Oct 23, 3:04am

Fri Oct 23, 2:04am

Fri Oct 23, 1:04am

Fri Oct 23, 12:04am

Thu Oct 22, 11:04pm

Thu Oct 22, 10:04pm

Thu Oct 22, 9:05pm

Thu Oct 22, 8:04pm

Thu Oct 22, 7:05pm

Thu Oct 22, 6:04pm

Thu Oct 22, 5:04pm

Thu Oct 22, 4:05pm

Thu Oct 22, 3:04pm

Thu Oct 22, 2:05pm

Thu Oct 22, 1:04pm

Thu Oct 22, 12:04pm

Thu Oct 22, 11:04am

Thu Oct 22, 10:05am

Thu Oct 22, 9:04am

Thu Oct 22, 8:05am

Thu Oct 22, 7:04am

Thu Oct 22, 6:04am

Thu Oct 22, 5:04am

Thu Oct 22, 4:04am

Thu Oct 22, 3:04am

Thu Oct 22, 2:04am

Thu Oct 22, 1:04am

Thu Oct 22, 12:04am

Wed Oct 21, 11:05pm

Wed Oct 21, 10:04pm

Wed Oct 21, 9:04pm

Wed Oct 21, 8:04pm

Wed Oct 21, 7:04pm

Wed Oct 21, 6:04pm

Wed Oct 21, 5:05pm

Wed Oct 21, 4:04pm

Wed Oct 21, 3:04pm

Wed Oct 21, 2:05pm

Wed Oct 21, 1:04pm

Wed Oct 21, 12:04pm

Wed Oct 21, 11:04am

Wed Oct 21, 10:04am

Wed Oct 21, 9:04am

Wed Oct 21, 8:04am

Wed Oct 21, 7:04am

Wed Oct 21, 6:04am

Wed Oct 21, 5:04am

Wed Oct 21, 4:04am

Wed Oct 21, 3:04am

Wed Oct 21, 2:04am

Wed Oct 21, 1:04am

Wed Oct 21, 12:04am

Tue Oct 20, 11:05pm

Tue Oct 20, 10:04pm

Tue Oct 20, 9:04pm

Tue Oct 20, 8:05pm

Tue Oct 20, 7:04pm

Tue Oct 20, 6:04pm

Tue Oct 20, 5:05pm

Tue Oct 20, 4:04pm

Tue Oct 20, 3:05pm

Tue Oct 20, 2:07pm

Tue Oct 20, 1:04pm

Tue Oct 20, 12:04pm

Tue Oct 20, 11:04am

Tue Oct 20, 10:05am

Tue Oct 20, 9:04am

Tue Oct 20, 8:04am

Tue Oct 20, 7:04am

Tue Oct 20, 6:04am

Tue Oct 20, 5:04am

Tue Oct 20, 4:04am

Tue Oct 20, 3:04am

Tue Oct 20, 2:04am

Tue Oct 20, 1:04am

Tue Oct 20, 12:04am

Mon Oct 19, 11:04pm

Mon Oct 19, 10:04pm

Mon Oct 19, 9:04pm

Mon Oct 19, 8:04pm

Mon Oct 19, 7:04pm

Mon Oct 19, 6:04pm

Mon Oct 19, 5:04pm

Mon Oct 19, 4:04pm

Mon Oct 19, 3:04pm

Mon Oct 19, 2:04pm

Mon Oct 19, 1:05pm

Mon Oct 19, 12:04pm

Mon Oct 19, 11:04am

Mon Oct 19, 10:04am

Mon Oct 19, 9:04am

Mon Oct 19, 8:04am

Mon Oct 19, 7:04am

Mon Oct 19, 6:04am

Mon Oct 19, 5:04am

Meta data:

ID: 6d6fd728-682c-4f05-b2ea-26fa04c1ca06
Link: https://api.weather.gov/products/6d6fd728-682c-4f05-b2ea-26fa04c1ca06